Flag for South Africa Weather past 2 weeks in Cape Town, South Africa

Now
68 °F

Broken clouds.


Feels Like: 68 °F
Forecast: 59 / 74 °F
Wind: 12 mph from South

Location: Cape Town International Airport

Current Time: Dec 20, 2014 at 11:03:31 AM

Latest Report: Dec 20, 2014 at 10:00 AM


Visibility: N/A

Pressure: 30.07 "Hg

Humidity: 56%

Dew point: 52 °F

Location of Cape TownLocation

Historic Weather in Cape Town — Graph

°F

Cape Town temperature yesterday

Maximum temperature yesterday: 73 °F (at 11:00 AM)
Minimum temperature yesterday: 61 °F (at 4:00 AM)
Average temperature yesterday: 67 °F

Past Weeks' High & Low Weather Summary

 TemperatureHumidityPressure
High86 °F (Dec 7, 12:00 PM)94% (Dec 9, 2:00 AM)30.12 "Hg (Dec 9, 2:00 AM)
Low59 °F (Dec 8, 5:00 AM)37% (Dec 13, 12:00 PM)29.77 "Hg (Dec 8, 7:00 PM)
Average68 °F64%29.97 "Hg
* Reported Dec 5 10:00 AM — Dec 20 10:00 AM, Cape Town, Weather by CustomWeather, © 2014

Note: Actual official high and low records may vary slightly from our data, if they occured in-between our weather recording intervals... More about our weather records

Advertising

Cape Town weather history for previous 24 hours

 ConditionsComfort  
Time TempWeatherWind HumidityBarometerVisibility
10:00 AM
Dec 20
68 °FBroken clouds.12 mph56%30.07 "HgN/A
9:00 AM68 °FPartly sunny.8 mph60%30.09 "HgN/A
8:00 AM66 °FBroken clouds.5 mph60%30.07 "HgN/A
7:00 AM64 °FPartly sunny.2 mph60%30.07 "HgN/A
6:00 AM63 °FPartly sunny.2 mph68%30.04 "HgN/A
5:00 AM63 °FPartly sunny.1 mph64%30.04 "HgN/A
4:00 AM63 °FPassing clouds.No wind64%30.04 "HgN/A
3:00 AM63 °FPassing clouds.3 mph64%30.04 "HgN/A
2:00 AMN/APassing clouds.N/AN/AN/AN/A
1:00 AMN/APassing clouds.N/AN/AN/AN/A
12:00 AM61 °FPassing clouds.2 mph63%30.09 "HgN/A
11:00 PM
Dec 19
64 °FPassing clouds.8 mph56%30.09 "HgN/A
10:00 PM66 °FPassing clouds.8 mph52%30.07 "HgN/A
9:00 PM66 °FPassing clouds.10 mph56%30.07 "HgN/A
8:00 PM66 °FPassing clouds.15 mph56%30.04 "HgN/A
7:00 PM68 °FPassing clouds.15 mph56%30.01 "HgN/A
6:00 PM70 °FScattered clouds.15 mph50%30.01 "HgN/A
5:00 PM70 °FScattered clouds.16 mph53%30.01 "HgN/A
4:00 PM73 °FScattered clouds.16 mph47%30.01 "HgN/A
3:00 PM73 °FScattered clouds.14 mph47%29.98 "HgN/A
2:00 PM73 °FScattered clouds.13 mph50%30.01 "HgN/A
1:00 PM72 °FPassing clouds.15 mph50%30.01 "HgN/A
12:00 PM73 °FPassing clouds.13 mph47%30.01 "HgN/A
11:00 AM73 °FPassing clouds.8 mph50%30.01 "HgN/A
Weather by CustomWeather, © 2014

See weather overviewHow to use our weather pages